Bar Harbor, ME

12:40 PM EDT on April 29, 2017 (GMT -0400)
Hancock County-Bar Harbor

Weather History for KBHB - February, 2014

Change the Weather History Date:

Tuesday, February 25, 2014

  Actual Average Record
Temperature  
Mean Temperature 16 °F -  
Max Temperature 23 °F 35 °F 57 °F (2016)
Min Temperature 10 °F 19 °F 2 °F (1982)
Degree Days  
Heating Degree Days 48    
Moisture  
Dew Point 3 °F    
Average Humidity 55    
Maximum Humidity 73    
Minimum Humidity 39    
Precipitation  
Precipitation 0.00 in - - ()
Sea Level Pressure  
Sea Level Pressure 29.84 in    
Wind  
Wind Speed 7 mph (WNW)    
Max Wind Speed 12 mph    
Max Gust Speed 20 mph    
Visibility 10 miles    
Events      
Averages and records for this station are not official NWS values.
T = Trace of Precipitation, MM = Missing Value Source: NWS Daily Summary

Daily Weather History Graph

Daily Weather History Graph

Search for Another Location

Airport or City:

Trip Planner

Search our weather history database for the weather conditions in past years. The results will help you decide how hot, cold, wet, or windy it might be!

Date:

Astronomy

Feb. 25, 2014 Rise Set
Actual Time 6:17 AM EST 5:16 PM EST
Civil Twilight 5:48 AM EST 5:45 PM EST
Nautical Twilight 5:14 AM EST 6:19 PM EST
Astronomical Twilight 4:40 AM EST 6:52 PM EST
Moon 3:15 AM EST (2/25) 1:11 PM EST (2/25)
Length of Visible Light 11h 57m
Length of Day
10h 58m
Waning Crescent, 18% of the Moon is Illuminated
Feb 25
Waning Crescent
Mar 1
New
Mar 8
First Quarter
Mar 16
Full
Mar 23
Last Quarter

Hourly Weather History & Observations

Time (EST) Temp. Windchill Dew Point Humidity Pressure Visibility Wind Dir Wind Speed Gust Speed Precip Events Conditions
12:15 AM 15.8 °F 6.1 °F 3.2 °F 58% 29.81 in 10.0 mi WNW 6.9 mph - N/A   Clear
12:35 AM 15.8 °F 5.1 °F 3.2 °F 58% 29.81 in 10.0 mi WNW 8.1 mph - N/A   Clear
12:55 AM 15.8 °F 6.1 °F 3.2 °F 58% 29.81 in 10.0 mi WNW 6.9 mph - N/A   Clear
1:15 AM 15.8 °F 5.1 °F 3.2 °F 58% 29.81 in 10.0 mi West 8.1 mph - N/A   Clear
1:35 AM 15.8 °F 5.1 °F 3.2 °F 58% 29.81 in 10.0 mi West 8.1 mph - N/A   Scattered Clouds
1:55 AM 15.8 °F 7.2 °F 3.2 °F 58% 29.81 in 10.0 mi WNW 5.8 mph - N/A   Mostly Cloudy
2:15 AM 15.8 °F 6.1 °F 3.2 °F 58% 29.81 in 10.0 mi WNW 6.9 mph 16.1 mph N/A   Mostly Cloudy
2:35 AM 15.8 °F 5.1 °F 5.0 °F 62% 29.81 in 10.0 mi West 8.1 mph - N/A   Overcast
2:55 AM 15.8 °F 4.2 °F 3.2 °F 58% 29.82 in 10.0 mi NW 9.2 mph - N/A   Scattered Clouds
3:15 AM 15.8 °F 7.2 °F 3.2 °F 58% 29.82 in 10.0 mi West 5.8 mph - N/A   Clear
3:35 AM 15.8 °F 8.6 °F 3.2 °F 58% 29.83 in 10.0 mi West 4.6 mph - N/A   Clear
3:55 AM 15.8 °F - 3.2 °F 58% 29.84 in 10.0 mi Calm Calm - N/A   Clear
4:15 AM 15.8 °F - 3.2 °F 58% 29.84 in 10.0 mi Calm Calm - N/A   Partly Cloudy
4:35 AM 14.0 °F 8.2 °F 5.0 °F 67% 29.85 in 10.0 mi NW 3.5 mph - N/A   Partly Cloudy
4:55 AM 15.8 °F 7.2 °F 3.2 °F 58% 29.85 in 10.0 mi WNW 5.8 mph - N/A   Clear
5:15 AM 14.0 °F 5.1 °F 3.2 °F 62% 29.86 in 10.0 mi WNW 5.8 mph - N/A   Clear
5:35 AM 14.0 °F 6.5 °F 3.2 °F 62% 29.87 in 10.0 mi NW 4.6 mph - N/A   Clear
5:55 AM 12.2 °F 0.7 °F 3.2 °F 67% 29.87 in 10.0 mi WNW 8.1 mph - N/A   Clear
6:15 AM 12.2 °F 2.9 °F 3.2 °F 67% 29.88 in 10.0 mi WNW 5.8 mph - N/A   Clear
6:35 AM 12.2 °F 4.3 °F 3.2 °F 67% 29.89 in 10.0 mi NW 4.6 mph - N/A   Clear
6:55 AM 12.2 °F 1.7 °F 3.2 °F 67% 29.89 in 10.0 mi WNW 6.9 mph - N/A   Partly Cloudy
7:15 AM 12.2 °F 2.9 °F 3.2 °F 67% 29.89 in 10.0 mi NNW 5.8 mph - N/A   Partly Cloudy
7:35 AM 12.2 °F 1.7 °F 3.2 °F 67% 29.90 in 10.0 mi NNW 6.9 mph - N/A   Clear
7:55 AM 14.0 °F 1.2 °F 1.4 °F 57% 29.89 in 10.0 mi WNW 10.4 mph - N/A   Clear
8:15 AM 15.8 °F 4.2 °F 1.4 °F 53% 29.90 in 10.0 mi WNW 9.2 mph - N/A   Clear
8:35 AM 15.8 °F 4.2 °F -0.4 °F 49% 29.89 in 10.0 mi NW 9.2 mph - N/A   Clear
8:55 AM 15.8 °F 3.4 °F -0.4 °F 49% 29.89 in 10.0 mi West 10.4 mph - N/A   Clear
9:15 AM 15.8 °F 2.7 °F -0.4 °F 49% 29.88 in 10.0 mi West 11.5 mph - N/A   Clear
9:35 AM 15.8 °F 3.4 °F -0.4 °F 49% 29.87 in 10.0 mi West 10.4 mph 16.1 mph N/A   Clear
9:55 AM 17.6 °F 6.4 °F -0.4 °F 45% 29.87 in 10.0 mi West 9.2 mph 17.3 mph N/A   Clear
10:15 AM 17.6 °F 8.2 °F -0.4 °F 45% 29.86 in 10.0 mi NW 6.9 mph 19.6 mph N/A   Clear
10:35 AM 17.6 °F 6.4 °F -0.4 °F 45% 29.85 in 10.0 mi WNW 9.2 mph 17.3 mph N/A   Clear
10:55 AM 17.6 °F 7.3 °F -0.4 °F 45% 29.85 in 10.0 mi West 8.1 mph - N/A   Clear
11:15 AM 19.4 °F 9.5 °F 1.4 °F 46% 29.85 in 10.0 mi West 8.1 mph - N/A   Clear
11:35 AM 19.4 °F 11.5 °F 1.4 °F 46% 29.84 in 10.0 mi WNW 5.8 mph - N/A   Clear
11:55 AM 19.4 °F 10.4 °F -0.4 °F 42% 29.84 in 10.0 mi WNW 6.9 mph 17.3 mph N/A   Clear
12:15 PM 21.2 °F 10.9 °F 1.4 °F 42% 29.82 in 10.0 mi West 9.2 mph - N/A   Clear
12:35 PM 21.2 °F 13.6 °F 1.4 °F 42% 29.81 in 10.0 mi WNW 5.8 mph 17.3 mph N/A   Clear
12:55 PM 21.2 °F 12.6 °F 1.4 °F 42% 29.79 in 10.0 mi WNW 6.9 mph - N/A   Clear
1:15 PM 21.2 °F 10.9 °F 1.4 °F 42% 29.79 in 10.0 mi West 9.2 mph - N/A   Clear
1:35 PM 23.0 °F 13.9 °F 1.4 °F 39% 29.79 in 10.0 mi WNW 8.1 mph - N/A   Clear
1:55 PM 23.0 °F 14.7 °F 1.4 °F 39% 29.79 in 10.0 mi West 6.9 mph 17.3 mph N/A   Clear
2:15 PM 21.2 °F 12.6 °F 1.4 °F 42% 29.78 in 10.0 mi West 6.9 mph - N/A   Clear
2:35 PM 21.2 °F 11.7 °F 1.4 °F 42% 29.78 in 10.0 mi West 8.1 mph 18.4 mph N/A   Clear
2:55 PM 23.0 °F 13.9 °F 1.4 °F 39% 29.78 in 10.0 mi West 8.1 mph 18.4 mph N/A   Partly Cloudy
3:15 PM 23.0 °F 11.7 °F 1.4 °F 39% 29.77 in 10.0 mi West 11.5 mph 16.1 mph N/A   Mostly Cloudy
3:35 PM 23.0 °F 13.9 °F 3.2 °F 43% 29.78 in 10.0 mi West 8.1 mph - N/A   Mostly Cloudy
3:55 PM 23.0 °F 13.1 °F 3.2 °F 43% 29.77 in 10.0 mi West 9.2 mph 16.1 mph N/A   Mostly Cloudy
4:15 PM 21.2 °F 11.7 °F 3.2 °F 46% 29.78 in 10.0 mi West 8.1 mph 18.4 mph N/A   Overcast
4:35 PM 21.2 °F 10.1 °F 3.2 °F 46% 29.78 in 10.0 mi West 10.4 mph - N/A   Overcast
4:55 PM 21.2 °F 13.6 °F 5.0 °F 50% 29.79 in 10.0 mi WNW 5.8 mph 17.3 mph N/A   Overcast
5:15 PM 21.2 °F 11.7 °F 5.0 °F 50% 29.79 in 10.0 mi West 8.1 mph - N/A   Overcast
5:35 PM 19.4 °F 8.6 °F 5.0 °F 54% 29.80 in 10.0 mi West 9.2 mph 16.1 mph N/A   Overcast
5:55 PM 19.4 °F 11.5 °F 5.0 °F 54% 29.81 in 10.0 mi West 5.8 mph - N/A   Scattered Clouds
6:15 PM 19.4 °F 12.8 °F 5.0 °F 54% 29.82 in 10.0 mi West 4.6 mph - N/A   Clear
6:35 PM 19.4 °F 11.5 °F 5.0 °F 54% 29.83 in 10.0 mi West 5.8 mph - N/A   Partly Cloudy
6:55 PM 19.4 °F 11.5 °F 5.0 °F 54% 29.83 in 10.0 mi WNW 5.8 mph - N/A   Clear
7:15 PM 17.6 °F 9.3 °F 5.0 °F 58% 29.84 in 10.0 mi West 5.8 mph - N/A   Clear
7:35 PM 17.6 °F 10.7 °F 6.8 °F 63% 29.84 in 10.0 mi West 4.6 mph - N/A   Clear
7:55 PM 17.6 °F 12.3 °F 6.8 °F 63% 29.85 in 10.0 mi West 3.5 mph - N/A   Clear
8:15 PM 17.6 °F 12.3 °F 6.8 °F 63% 29.85 in 10.0 mi West 3.5 mph - N/A   Clear
8:35 PM 15.8 °F 10.2 °F 5.0 °F 62% 29.86 in 10.0 mi West 3.5 mph - N/A   Clear
8:55 PM 15.8 °F 7.2 °F 5.0 °F 62% 29.86 in 10.0 mi West 5.8 mph - N/A   Clear
9:15 PM 15.8 °F 10.2 °F 3.2 °F 58% 29.87 in 10.0 mi WNW 3.5 mph - N/A   Clear
9:35 PM 15.8 °F - 3.2 °F 58% 29.87 in 10.0 mi Calm Calm - N/A   Clear
9:55 PM 14.0 °F - 3.2 °F 62% 29.87 in 10.0 mi Calm Calm - N/A   Clear
10:15 PM 14.0 °F - 3.2 °F 62% 29.87 in 10.0 mi Calm Calm - N/A   Clear
10:35 PM 12.2 °F 6.1 °F 3.2 °F 67% 29.87 in 10.0 mi West 3.5 mph - N/A   Clear
10:55 PM 12.2 °F - 3.2 °F 67% 29.88 in 10.0 mi Calm Calm - N/A   Clear
11:15 PM 10.4 °F 4.0 °F 3.2 °F 73% 29.88 in 10.0 mi West 3.5 mph - N/A   Clear
11:35 PM 12.2 °F 6.1 °F 3.2 °F 67% 29.88 in 10.0 mi West 3.5 mph - N/A   Clear
11:55 PM 12.2 °F 4.3 °F 3.2 °F 67% 29.89 in 10.0 mi West 4.6 mph - N/A   Clear